| time (UTC) | temp F | wind direction | speed MPH | gust MPH | rain 1hr in | rain 24hr in | rain mn in | humidity % | barometer mb |
| 20260506185227 | 66 | 59 | 2.0 | 3.0 | 0.00 | 0.06 | 0.06 | 79 | 1010.2 |
| 20260506184725 | 66 | 325 | 0.0 | 6.0 | 0.00 | 0.06 | 0.06 | 78 | 1010.5 |
| 20260506184222 | 66 | 213 | 1.0 | 2.0 | 0.00 | 0.06 | 0.06 | 78 | 1010.9 |
| 20260506183718 | 66 | 148 | 0.0 | 3.0 | 0.00 | 0.06 | 0.06 | 79 | 1010.5 |
| 20260506183214 | 67 | 173 | 2.0 | 3.0 | 0.00 | 0.06 | 0.06 | 80 | 1010.2 |
| 20260506182712 | 66 | 331 | 0.0 | 3.0 | 0.00 | 0.06 | 0.06 | 79 | 1010.7 |
| 20260506182209 | 67 | 100 | 2.0 | 3.0 | 0.00 | 0.06 | 0.06 | 80 | 1011.0 |
| 20260506181706 | 67 | 259 | 1.0 | 3.0 | 0.00 | 0.06 | 0.06 | 80 | 1011.0 |
| 20260506181204 | 66 | 249 | 0.0 | 3.0 | 0.00 | 0.06 | 0.06 | 80 | 1010.8 |
| 20260506180700 | 66 | 21 | 0.0 | 6.0 | 0.00 | 0.06 | 0.06 | 80 | 1011.0 |
| 20260506180156 | 66 | 330 | 2.0 | 6.0 | 0.00 | 0.06 | 0.06 | 80 | 1011.1 |
| 20260506175653 | 66 | 8 | 0.0 | 2.0 | 0.00 | 0.06 | 0.06 | 81 | 1010.8 |
| 20260506175150 | 66 | 125 | 0.0 | 2.0 | 0.00 | 0.06 | 0.06 | 80 | 1011.2 |
| 20260506174648 | 66 | 238 | 0.0 | 2.0 | 0.00 | 0.06 | 0.06 | 80 | 1011.1 |
| 20260506174145 | 66 | 209 | 2.0 | 4.0 | 0.00 | 0.06 | 0.06 | 81 | 1011.2 |
| 20260506173643 | 66 | 237 | 2.0 | 2.0 | 0.00 | 0.06 | 0.06 | 81 | 1010.9 |
| 20260506173139 | 65 | 290 | 4.0 | 4.0 | 0.00 | 0.06 | 0.06 | 79 | 1011.1 |
| 20260506172636 | 66 | 196 | 2.0 | 3.0 | 0.00 | 0.06 | 0.06 | 80 | 1011.0 |
| 20260506172133 | 66 | 207 | 0.0 | 3.0 | 0.00 | 0.06 | 0.06 | 80 | 1010.4 |
| 20260506171630 | 66 | 277 | 2.0 | 3.0 | 0.00 | 0.06 | 0.06 | 79 | 1011.0 |
| 20260506171128 | 66 | 261 | 0.0 | 5.0 | 0.00 | 0.06 | 0.06 | 79 | 1011.1 |
| 20260506170625 | 66 | 296 | 5.0 | 5.0 | 0.00 | 0.06 | 0.06 | 79 | 1011.2 |
| 20260506170122 | 66 | 110 | 0.0 | 2.0 | 0.00 | 0.06 | 0.06 | 79 | 1010.9 |
| 20260506165621 | 66 | 92 | 0.0 | 3.0 | 0.00 | 0.06 | 0.06 | 79 | 1011.3 |
| 20260506165116 | 67 | 89 | 4.0 | 5.0 | 0.00 | 0.06 | 0.06 | 80 | 1011.5 |
| 20260506164614 | 66 | 17 | 2.0 | 4.0 | 0.00 | 0.06 | 0.06 | 79 | 1011.3 |
| 20260506164111 | 66 | 91 | 2.0 | 2.0 | 0.00 | 0.06 | 0.06 | 81 | 1011.2 |
| 20260506163607 | 66 | 139 | 0.0 | 2.0 | 0.00 | 0.06 | 0.06 | 82 | 1011.4 |
| 20260506163103 | 65 | 63 | 0.0 | 2.0 | 0.00 | 0.06 | 0.06 | 82 | 1011.0 |
| 20260506162559 | 65 | 293 | 2.0 | 3.0 | 0.00 | 0.06 | 0.06 | 82 | 1011.5 |
| 20260506162057 | 65 | 15 | 0.0 | 2.0 | 0.00 | 0.06 | 0.06 | 83 | 1010.9 |
| 20260506161554 | 64 | 241 | 0.0 | 4.0 | 0.00 | 0.06 | 0.06 | 82 | 1011.5 |
| 20260506161046 | 64 | 213 | 1.0 | 4.0 | 0.00 | 0.06 | 0.06 | 83 | 1011.5 |
| 20260506160543 | 64 | 345 | 3.0 | 3.0 | 0.00 | 0.06 | 0.06 | 84 | 1011.7 |
| 20260506160040 | 64 | 225 | 2.0 | 5.0 | 0.00 | 0.06 | 0.06 | 85 | 1011.7 |
| 20260506155538 | 64 | 278 | 0.0 | 2.0 | 0.00 | 0.06 | 0.06 | 86 | 1011.6 |
| 20260506153714 | 62 | 333 | 3.0 | 3.0 | 0.00 | 0.06 | 0.06 | 88 | 1011.7 |
| 20260506153212 | 61 | 290 | 1.0 | 4.0 | 0.00 | 0.06 | 0.06 | 89 | 1011.7 |
| 20260506152709 | 62 | 330 | 2.0 | 2.0 | 0.00 | 0.06 | 0.06 | 89 | 1011.8 |
| 20260506152206 | 61 | 337 | 0.0 | 6.0 | 0.00 | 0.06 | 0.06 | 90 | 1011.4 |
| 20260506151706 | 61 | 20 | 2.0 | 4.0 | 0.00 | 0.06 | 0.06 | 90 | 1011.4 |
| 20260506151201 | 61 | 197 | 1.0 | 2.0 | 0.00 | 0.06 | 0.06 | 90 | 1011.6 |
| 20260506150658 | 61 | 138 | 0.0 | 2.0 | 0.00 | 0.06 | 0.06 | 90 | 1011.6 |
| 20260506150155 | 61 | 218 | 2.0 | 2.0 | 0.00 | 0.06 | 0.06 | 90 | 1011.7 |
| 20260506145652 | 61 | 144 | 1.0 | 2.0 | 0.00 | 0.06 | 0.06 | 90 | 1011.6 |
| 20260506145149 | 61 | 343 | 0.0 | 3.0 | 0.00 | 0.06 | 0.06 | 90 | 1011.7 |
| 20260506144647 | 61 | 148 | 0.0 | 2.0 | 0.00 | 0.06 | 0.06 | 90 | 1011.9 |
| 20260506144143 | 60 | 354 | 0.0 | 2.0 | 0.00 | 0.06 | 0.06 | 90 | 1011.9 |
| 20260506143641 | 60 | 128 | 0.0 | 2.0 | 0.00 | 0.06 | 0.06 | 90 | 1011.8 |
| 20260506143138 | 60 | 245 | 0.0 | 2.0 | 0.00 | 0.06 | 0.06 | 90 | 1011.7 |
| 20260506142637 | 60 | 287 | 0.0 | 2.0 | 0.00 | 0.06 | 0.06 | 90 | 1011.7 |
| 20260506142134 | 60 | 232 | 0.0 | 2.0 | 0.00 | 0.06 | 0.06 | 90 | 1011.9 |
| 20260506141632 | 60 | 206 | 0.0 | 2.0 | 0.00 | 0.06 | 0.06 | 89 | 1012.3 |
| 20260506141130 | 60 | 93 | 0.0 | 2.0 | 0.02 | 0.06 | 0.06 | 89 | 1012.3 |
| 20260506140627 | 60 | 5 | 0.0 | 2.0 | 0.05 | 0.06 | 0.06 | 89 | 1012.1 |
| 20260506140124 | 60 | 91 | 0.0 | 2.0 | 0.09 | 0.06 | 0.06 | 89 | 1012.3 |
| 20260506135621 | 60 | 145 | 0.0 | 1.0 | 0.02 | 0.04 | 0.04 | 89 | 1012.2 |
| 20260506135117 | 60 | 82 | 0.0 | 2.0 | 0.00 | 0.04 | 0.04 | 88 | 1012.2 |
| 20260506134614 | 60 | 58 | 0.0 | 2.0 | 0.00 | 0.04 | 0.04 | 88 | 1012.5 |
| 20260506134109 | 60 | 315 | 5.0 | 5.0 | 0.00 | 0.04 | 0.04 | 88 | 1012.6 |
| 20260506133607 | 60 | 287 | 2.0 | 2.0 | 0.02 | 0.04 | 0.04 | 88 | 1012.4 |
| 20260506133104 | 60 | 156 | 0.0 | 2.0 | 0.05 | 0.04 | 0.04 | 88 | 1012.3 |
| 20260506132601 | 60 | 157 | 1.0 | 2.0 | 0.05 | 0.04 | 0.04 | 87 | 1012.4 |
| 20260506132058 | 60 | 177 | 0.0 | 2.0 | 0.05 | 0.03 | 0.03 | 87 | 1012.4 |
| 20260506131556 | 60 | 140 | 1.0 | 2.0 | 0.02 | 0.03 | 0.03 | 87 | 1012.1 |
| 20260506131052 | 60 | 264 | 0.0 | 1.0 | 0.02 | 0.02 | 0.02 | 86 | 1012.1 |
| 20260506130549 | 60 | 314 | 0.0 | 2.0 | 0.02 | 0.02 | 0.02 | 86 | 1012.2 |
| 20260506130046 | 60 | 152 | 1.0 | 1.0 | 0.02 | 0.02 | 0.02 | 85 | 1012.2 |
| 20260506125545 | 60 | 308 | 0.0 | 2.0 | 0.00 | 0.02 | 0.02 | 85 | 1012.0 |
| 20260506125042 | 60 | 179 | 2.0 | 2.0 | 0.00 | 0.02 | 0.02 | 84 | 1012.0 |
| 20260506124539 | 61 | 68 | 2.0 | 2.0 | 0.02 | 0.02 | 0.02 | 84 | 1012.2 |
| 20260506124037 | 61 | 126 | 0.0 | 2.0 | 0.05 | 0.02 | 0.02 | 83 | 1012.0 |
| 20260506123535 | 61 | 304 | 2.0 | 2.0 | 0.02 | 0.01 | 0.01 | 82 | 1012.1 |
| 20260506123033 | 62 | 80 | 0.0 | 2.0 | 0.02 | 0.01 | 0.01 | 81 | 1011.9 |
| 20260506122529 | 62 | 53 | 0.0 | 1.0 | 0.05 | 0.01 | 0.01 | 79 | 1012.1 |
| 20260506122028 | 62 | 266 | 0.0 | 2.0 | 0.02 | 0.00 | 0.00 | 77 | 1012.1 |
| 20260506121525 | 62 | 11 | 0.0 | 2.0 | 0.00 | 0.00 | 0.00 | 77 | 1012.5 |
| 20260506121021 | 62 | 267 | 0.0 | 2.0 | 0.00 | 0.00 | 0.00 | 79 | 1012.2 |
| 20260506120519 | 62 | 67 | 1.0 | 2.0 | 0.00 | 0.00 | 0.00 | 78 | 1012.2 |
| 20260506120016 | 62 | 190 | 0.0 | 2.0 | 0.00 | 0.00 | 0.00 | 78 | 1012.0 |
| 20260506115514 | 62 | 175 | 0.0 | 3.0 | 0.00 | 0.00 | 0.00 | 76 | 1011.9 |
| 20260506115012 | 63 | 248 | 1.0 | 2.0 | 0.00 | 0.00 | 0.00 | 75 | 1011.9 |
| 20260506114509 | 63 | 190 | 1.0 | 2.0 | 0.00 | 0.00 | 0.00 | 73 | 1012.0 |
| 20260506114008 | 63 | 110 | 0.0 | 3.0 | 0.00 | 0.00 | 0.00 | 72 | 1011.8 |
| 20260506113505 | 64 | 320 | 0.0 | 2.0 | 0.00 | 0.00 | 0.00 | 72 | 1011.8 |
| 20260506113002 | 63 | 151 | 2.0 | 2.0 | 0.00 | 0.00 | 0.00 | 72 | 1011.8 |
| 20260506112459 | 64 | 330 | 0.0 | 1.0 | 0.00 | 0.00 | 0.00 | 72 | 1011.7 |
| 20260506111956 | 64 | 132 | 1.0 | 2.0 | 0.00 | 0.00 | 0.00 | 71 | 1011.6 |
| 20260506111454 | 64 | 107 | 0.0 | 3.0 | 0.00 | 0.00 | 0.00 | 71 | 1011.7 |
| 20260506110950 | 64 | 301 | 1.0 | 3.0 | 0.00 | 0.00 | 0.00 | 70 | 1011.9 |
| 20260506110449 | 64 | 10 | 0.0 | 2.0 | 0.00 | 0.00 | 0.00 | 71 | 1011.6 |
| 20260506105945 | 64 | 63 | 0.0 | 2.0 | 0.00 | 0.00 | 0.00 | 71 | 1011.9 |
| 20260506105441 | 64 | 110 | 0.0 | 2.0 | 0.00 | 0.00 | 0.00 | 70 | 1011.9 |
| 20260506104939 | 64 | 299 | 0.0 | 2.0 | 0.00 | 0.00 | 0.00 | 70 | 1011.7 |
| 20260506104437 | 64 | 182 | 2.0 | 4.0 | 0.00 | 0.00 | 0.00 | 70 | 1011.4 |
| 20260506103935 | 64 | 30 | 1.0 | 3.0 | 0.00 | 0.00 | 0.00 | 70 | 1011.5 |
| 20260506103432 | 64 | 77 | 0.0 | 2.0 | 0.00 | 0.00 | 0.00 | 70 | 1011.6 |
| 20260506102928 | 64 | 149 | 1.0 | 1.0 | 0.00 | 0.00 | 0.00 | 70 | 1011.4 |
| 20260506102427 | 64 | 196 | 2.0 | 2.0 | 0.00 | 0.00 | 0.00 | 70 | 1011.6 |
| 20260506101924 | 64 | 336 | 0.0 | 2.0 | 0.00 | 0.00 | 0.00 | 69 | 1011.8 |
| 20260506101420 | 64 | 139 | 1.0 | 5.0 | 0.00 | 0.00 | 0.00 | 69 | 1011.7 |
| 20260506100917 | 64 | 212 | 1.0 | 4.0 | 0.00 | 0.00 | 0.00 | 69 | 1011.6 |
| 20260506100416 | 64 | 290 | 0.0 | 2.0 | 0.00 | 0.00 | 0.00 | 69 | 1011.5 |
| 20260506095913 | 64 | 89 | 1.0 | 3.0 | 0.00 | 0.00 | 0.00 | 68 | 1011.6 |
| 20260506095411 | 64 | 336 | 2.0 | 3.0 | 0.00 | 0.00 | 0.00 | 69 | 1011.8 |
| 20260506094907 | 64 | 1 | 3.0 | 3.0 | 0.00 | 0.00 | 0.00 | 69 | 1011.7 |
| 20260506094406 | 64 | 307 | 0.0 | 2.0 | 0.00 | 0.00 | 0.00 | 69 | 1011.6 |
| 20260506093903 | 64 | 310 | 3.0 | 3.0 | 0.00 | 0.00 | 0.00 | 69 | 1011.8 |
| 20260506093401 | 64 | 61 | 2.0 | 3.0 | 0.00 | 0.00 | 0.00 | 68 | 1011.7 |
| 20260506092859 | 64 | 76 | 0.0 | 3.0 | 0.00 | 0.00 | 0.00 | 68 | 1011.8 |
| 20260506092356 | 64 | 189 | 1.0 | 3.0 | 0.00 | 0.00 | 0.00 | 68 | 1011.8 |
| 20260506091852 | 65 | 141 | 1.0 | 6.0 | 0.00 | 0.00 | 0.00 | 68 | 1011.6 |
| 20260506091351 | 64 | 336 | 1.0 | 3.0 | 0.00 | 0.00 | 0.00 | 68 | 1011.7 |
| 20260506090848 | 64 | 307 | 1.0 | 3.0 | 0.00 | 0.00 | 0.00 | 68 | 1011.7 |
| 20260506090345 | 64 | 307 | 0.0 | 2.0 | 0.00 | 0.00 | 0.00 | 69 | 1012.0 |
| 20260506085842 | 64 | 39 | 0.0 | 0.0 | 0.00 | 0.00 | 0.00 | 69 | 1011.9 |
| 20260506085338 | 64 | 40 | 2.0 | 2.0 | 0.00 | 0.00 | 0.00 | 69 | 1011.7 |
| 20260506084835 | 64 | 263 | 0.0 | 2.0 | 0.00 | 0.00 | 0.00 | 68 | 1012.1 |
| 20260506084332 | 64 | 177 | 0.0 | 2.0 | 0.00 | 0.00 | 0.00 | 68 | 1011.9 |
| 20260506083828 | 64 | 206 | 1.0 | 2.0 | 0.00 | 0.00 | 0.00 | 67 | 1011.7 |
| 20260506083326 | 65 | 297 | 1.0 | 3.0 | 0.00 | 0.00 | 0.00 | 67 | 1012.0 |
| 20260506082823 | 65 | 295 | 1.0 | 2.0 | 0.00 | 0.00 | 0.00 | 66 | 1012.0 |
| 20260506082319 | 65 | 129 | 0.0 | 5.0 | 0.00 | 0.00 | 0.00 | 66 | 1011.7 |
| 20260506081816 | 65 | 131 | 0.0 | 3.0 | 0.00 | 0.00 | 0.00 | 66 | 1011.6 |
| 20260506081314 | 65 | 301 | 2.0 | 4.0 | 0.00 | 0.00 | 0.00 | 66 | 1011.8 |
| 20260506080811 | 65 | 160 | 1.0 | 3.0 | 0.00 | 0.00 | 0.00 | 66 | 1012.1 |
| 20260506080307 | 65 | 131 | 1.0 | 2.0 | 0.00 | 0.00 | 0.00 | 66 | 1012.2 |
| 20260506073252 | 64 | 56 | 0.0 | 2.0 | 0.00 | 0.00 | 0.00 | 65 | 1011.9 |
| 20260506072748 | 64 | 321 | 2.0 | 2.0 | 0.00 | 0.00 | 0.00 | 64 | 1011.8 |
| 20260506072246 | 64 | 264 | 0.0 | 6.0 | 0.00 | 0.00 | 0.00 | 64 | 1012.1 |
| 20260506071744 | 63 | 274 | 0.0 | 2.0 | 0.00 | 0.00 | 0.00 | 64 | 1012.2 |
| 20260506071241 | 64 | 235 | 0.0 | 2.0 | 0.00 | 0.00 | 0.00 | 63 | 1011.9 |
| 20260506070738 | 63 | 30 | 1.0 | 2.0 | 0.00 | 0.00 | 0.00 | 63 | 1012.2 |
| 20260506070235 | 64 | 140 | 0.0 | 2.0 | 0.00 | 0.00 | 0.00 | 63 | 1012.3 |
| 20260506062212 | 63 | 71 | 0.0 | 1.0 | 0.00 | 0.00 | 0.00 | 62 | 1012.7 |
| 20260506061708 | 63 | 110 | 0.0 | 1.0 | 0.00 | 0.00 | 0.00 | 62 | 1012.8 |
| 20260506061205 | 63 | 87 | 0.0 | 1.0 | 0.00 | 0.00 | 0.00 | 62 | 1012.8 |
| 20260506060704 | 63 | 325 | 2.0 | 2.0 | 0.00 | 0.00 | 0.00 | 61 | 1012.9 |
| 20260506060200 | 63 | 66 | 1.0 | 1.0 | 0.00 | 0.00 | 0.00 | 61 | 1013.2 |
| 20260506051132 | 64 | 328 | 0.0 | 1.0 | 0.00 | 0.00 | 0.00 | 58 | 1013.0 |
| 20260506050631 | 65 | 163 | 0.0 | 1.0 | 0.00 | 0.00 | 0.00 | 57 | 1012.9 |
| 20260506050128 | 64 | 336 | 0.0 | 3.0 | 0.00 | 0.00 | 0.00 | 57 | 1013.2 |
| 20260506045121 | 63 | 87 | 0.0 | 1.0 | 0.00 | 0.00 | 0.00 | 59 | 1012.9 |
| 20260506044619 | 63 | 206 | 0.0 | 1.0 | 0.00 | 0.00 | 0.00 | 58 | 1012.8 |
| 20260506044115 | 63 | 71 | 0.0 | 0.0 | 0.00 | 0.00 | 0.00 | 58 | 1012.8 |
| 20260506043612 | 64 | 214 | 0.0 | 1.0 | 0.00 | 0.00 | 0.00 | 57 | 1012.9 |
| 20260506043111 | 64 | 214 | 0.0 | 0.0 | 0.00 | 0.00 | 0.00 | 56 | 1012.8 |
| 20260506042609 | 64 | 58 | 0.0 | 0.0 | 0.00 | 0.00 | 0.00 | 56 | 1012.8 |
| 20260506042107 | 64 | 43 | 0.0 | 0.0 | 0.00 | 0.00 | 0.00 | 56 | 1013.0 |
| 20260506041606 | 65 | 273 | 0.0 | 0.0 | 0.00 | 0.00 | 0.00 | 55 | 1013.0 |
| 20260506041102 | 65 | 273 | 0.0 | 0.0 | 0.00 | 0.00 | 0.00 | 55 | 1012.9 |
| 20260506040600 | 65 | 140 | 0.0 | 1.0 | 0.00 | 0.00 | 0.00 | 54 | 1013.0 |
| 20260506040056 | 65 | 251 | 0.0 | 0.0 | 0.00 | 0.00 | 0.00 | 54 | 1012.8 |
| 20260506035553 | 65 | 251 | 0.0 | 0.0 | 0.00 | 0.00 | 0.00 | 54 | 1012.7 |
| 20260506035050 | 65 | 251 | 0.0 | 0.0 | 0.00 | 0.00 | 0.00 | 54 | 1012.9 |
| 20260506034547 | 65 | 194 | 0.0 | 1.0 | 0.00 | 0.00 | 0.00 | 53 | 1013.0 |
| 20260506034044 | 65 | 168 | 0.0 | 0.0 | 0.00 | 0.00 | 0.00 | 54 | 1012.9 |
| 20260506033541 | 65 | 168 | 0.0 | 0.0 | 0.00 | 0.00 | 0.00 | 53 | 1013.0 |
| 20260506033038 | 65 | 168 | 0.0 | 0.0 | 0.00 | 0.00 | 0.00 | 53 | 1013.0 |
| 20260506032535 | 65 | 168 | 0.0 | 0.0 | 0.00 | 0.00 | 0.00 | 53 | 1013.1 |
| 20260506032032 | 65 | 78 | 0.0 | 0.0 | 0.00 | 0.00 | 0.00 | 53 | 1013.1 |
| 20260506031530 | 65 | 163 | 0.0 | 0.0 | 0.00 | 0.00 | 0.00 | 53 | 1012.9 |
| 20260506031026 | 65 | 181 | 0.0 | 0.0 | 0.00 | 0.00 | 0.00 | 52 | 1013.0 |
| 20260506030525 | 65 | 181 | 0.0 | 0.0 | 0.00 | 0.00 | 0.00 | 52 | 1013.1 |
| 20260506030022 | 66 | 131 | 0.0 | 1.0 | 0.00 | 0.00 | 0.00 | 51 | 1013.0 |
| 20260506025518 | 66 | 187 | 0.0 | 0.0 | 0.00 | 0.00 | 0.00 | 51 | 1013.0 |
| 20260506025014 | 66 | 343 | 0.0 | 0.0 | 0.00 | 0.00 | 0.00 | 50 | 1013.2 |
| 20260506024512 | 67 | 325 | 0.0 | 0.0 | 0.00 | 0.00 | 0.00 | 49 | 1013.2 |
| 20260506024008 | 67 | 201 | 0.0 | 0.0 | 0.00 | 0.00 | 0.00 | 48 | 1013.1 |
| 20260506023504 | 68 | 34 | 0.0 | 0.0 | 0.00 | 0.00 | 0.00 | 47 | 1013.4 |
| 20260506023001 | 67 | 156 | 0.0 | 0.0 | 0.00 | 0.00 | 0.00 | 48 | 1013.2 |
| 20260506022459 | 67 | 330 | 0.0 | 2.0 | 0.00 | 0.00 | 0.00 | 47 | 1013.3 |
| 20260506021956 | 68 | 214 | 0.0 | 0.0 | 0.00 | 0.00 | 0.00 | 46 | 1013.1 |
| 20260506021454 | 68 | 163 | 0.0 | 0.0 | 0.00 | 0.00 | 0.00 | 46 | 1012.8 |
| 20260506020951 | 68 | 110 | 0.0 | 1.0 | 0.00 | 0.00 | 0.00 | 46 | 1013.0 |
| 20260506020448 | 68 | 330 | 0.0 | 0.0 | 0.00 | 0.00 | 0.00 | 46 | 1012.9 |
| 20260506015945 | 68 | 238 | 0.0 | 0.0 | 0.00 | 0.00 | 0.00 | 45 | 1013.0 |
| 20260506015443 | 68 | 223 | 0.0 | 0.0 | 0.00 | 0.00 | 0.00 | 45 | 1012.9 |
| 20260506014939 | 69 | 206 | 0.0 | 0.0 | 0.00 | 0.00 | 0.00 | 45 | 1012.9 |
| 20260506014436 | 69 | 216 | 0.0 | 0.0 | 0.00 | 0.00 | 0.00 | 44 | 1013.0 |
| 20260506013933 | 69 | 216 | 0.0 | 0.0 | 0.00 | 0.00 | 0.00 | 44 | 1013.1 |
| 20260506013431 | 69 | 212 | 0.0 | 0.0 | 0.00 | 0.00 | 0.00 | 44 | 1013.0 |
| 20260506012927 | 70 | 163 | 0.0 | 0.0 | 0.00 | 0.00 | 0.00 | 43 | 1013.0 |
| 20260506012424 | 70 | 216 | 0.0 | 1.0 | 0.00 | 0.00 | 0.00 | 42 | 1012.9 |
| 20260506011921 | 70 | 207 | 0.0 | 1.0 | 0.00 | 0.00 | 0.00 | 41 | 1012.8 |
| 20260506011418 | 71 | 256 | 0.0 | 0.0 | 0.00 | 0.00 | 0.00 | 41 | 1012.7 |
| 20260506010915 | 71 | 238 | 0.0 | 1.0 | 0.00 | 0.00 | 0.00 | 40 | 1012.6 |
| 20260506010414 | 72 | 194 | 0.0 | 1.0 | 0.00 | 0.00 | 0.00 | 39 | 1012.6 |
| 20260506005909 | 73 | 241 | 1.0 | 2.0 | 0.00 | 0.00 | 0.00 | 38 | 1012.5 |
| 20260506005408 | 72 | 253 | 1.0 | 2.0 | 0.00 | 0.00 | 0.00 | 39 | 1012.4 |
| 20260506004902 | 72 | 254 | 1.0 | 2.0 | 0.00 | 0.00 | 0.00 | 39 | 1012.2 |
| 20260506004400 | 73 | 250 | 0.0 | 2.0 | 0.00 | 0.00 | 0.00 | 38 | 1012.4 |
| 20260506003856 | 73 | 179 | 2.0 | 2.0 | 0.00 | 0.00 | 0.00 | 38 | 1012.1 |
| 20260506003353 | 73 | 221 | 0.0 | 1.0 | 0.00 | 0.00 | 0.00 | 38 | 1012.3 |
| 20260506002849 | 74 | 270 | 0.0 | 2.0 | 0.00 | 0.00 | 0.00 | 37 | 1012.3 |
| 20260506002345 | 74 | 58 | 0.0 | 2.0 | 0.00 | 0.00 | 0.00 | 36 | 1012.1 |
| 20260506001841 | 74 | 297 | 3.0 | 3.0 | 0.00 | 0.00 | 0.00 | 35 | 1012.3 |
| 20260506001338 | 74 | 350 | 0.0 | 1.0 | 0.00 | 0.00 | 0.00 | 35 | 1012.0 |
| 20260506000835 | 74 | 163 | 0.0 | 1.0 | 0.00 | 0.00 | 0.00 | 35 | 1012.1 |
| 20260506000333 | 75 | 276 | 0.0 | 2.0 | 0.00 | 0.00 | 0.00 | 35 | 1012.1 |
| 20260505235830 | 75 | 344 | 0.0 | 5.0 | 0.00 | 0.00 | 0.00 | 34 | 1012.0 |
| 20260505235327 | 76 | 226 | 0.0 | 2.0 | 0.00 | 0.00 | 0.00 | 34 | 1012.1 |
| 20260505234824 | 76 | 279 | 2.0 | 4.0 | 0.00 | 0.00 | 0.00 | 33 | 1012.1 |
| 20260505234322 | 76 | 110 | 0.0 | 2.0 | 0.00 | 0.00 | 0.00 | 34 | 1011.8 |
| 20260505233819 | 76 | 283 | 2.0 | 6.0 | 0.00 | 0.00 | 0.00 | 33 | 1011.7 |
| 20260505233316 | 76 | 253 | 2.0 | 2.0 | 0.00 | 0.00 | 0.00 | 34 | 1012.0 |
| 20260505232813 | 76 | 276 | 0.0 | 2.0 | 0.00 | 0.00 | 0.00 | 34 | 1011.9 |
| 20260505232311 | 76 | 251 | 0.0 | 2.0 | 0.00 | 0.00 | 0.00 | 33 | 1011.9 |
| 20260505231808 | 77 | 198 | 3.0 | 4.0 | 0.00 | 0.00 | 0.00 | 31 | 1012.0 |
| 20260505231306 | 77 | 183 | 1.0 | 4.0 | 0.00 | 0.00 | 0.00 | 32 | 1012.1 |
| 20260505230804 | 78 | 218 | 2.0 | 4.0 | 0.00 | 0.00 | 0.00 | 33 | 1011.7 |
| 20260505230300 | 78 | 38 | 1.0 | 2.0 | 0.00 | 0.00 | 0.00 | 31 | 1011.9 |
| 20260505225757 | 78 | 7 | 0.0 | 4.0 | 0.00 | 0.00 | 0.00 | 29 | 1011.8 |
| 20260505225254 | 78 | 214 | 0.0 | 4.0 | 0.00 | 0.00 | 0.00 | 32 | 1012.0 |
| 20260505224749 | 78 | 324 | 1.0 | 3.0 | 0.00 | 0.00 | 0.00 | 30 | 1011.9 |
| 20260505224247 | 78 | 106 | 1.0 | 3.0 | 0.00 | 0.00 | 0.00 | 31 | 1011.9 |
| 20260505223744 | 79 | 290 | 0.0 | 6.0 | 0.00 | 0.00 | 0.00 | 30 | 1011.9 |
| 20260505223241 | 79 | 83 | 0.0 | 2.0 | 0.00 | 0.00 | 0.00 | 30 | 1012.0 |
| 20260505222736 | 79 | 304 | 1.0 | 3.0 | 0.00 | 0.00 | 0.00 | 29 | 1011.7 |
| 20260505222233 | 79 | 312 | 3.0 | 3.0 | 0.00 | 0.00 | 0.00 | 29 | 1012.0 |
| 20260505221730 | 80 | 230 | 0.0 | 5.0 | 0.00 | 0.00 | 0.00 | 29 | 1012.1 |
| 20260505221227 | 80 | 272 | 2.0 | 4.0 | 0.00 | 0.00 | 0.00 | 28 | 1012.3 |
| 20260505220723 | 80 | 59 | 1.0 | 5.0 | 0.00 | 0.00 | 0.00 | 29 | 1012.2 |
| 20260505220221 | 80 | 281 | 2.0 | 11.0 | 0.00 | 0.00 | 0.00 | 28 | 1012.0 |
| 20260505215719 | 80 | 304 | 4.0 | 5.0 | 0.00 | 0.00 | 0.00 | 27 | 1012.0 |
| 20260505215217 | 80 | 288 | 2.0 | 4.0 | 0.00 | 0.00 | 0.00 | 27 | 1012.0 |
| 20260505214714 | 80 | 233 | 0.0 | 5.0 | 0.00 | 0.00 | 0.00 | 27 | 1011.9 |
| 20260505214212 | 81 | 10 | 1.0 | 2.0 | 0.00 | 0.00 | 0.00 | 26 | 1011.9 |
| 20260505213709 | 81 | 254 | 0.0 | 6.0 | 0.00 | 0.00 | 0.00 | 25 | 1011.7 |
| 20260505213206 | 81 | 307 | 9.0 | 9.0 | 0.00 | 0.00 | 0.00 | 23 | 1011.7 |
| 20260505212702 | 81 | 198 | 0.0 | 4.0 | 0.00 | 0.00 | 0.00 | 27 | 1011.8 |
| 20260505212159 | 81 | 188 | 2.0 | 5.0 | 0.00 | 0.00 | 0.00 | 28 | 1012.0 |
| 20260505211656 | 81 | 251 | 0.0 | 4.0 | 0.00 | 0.00 | 0.00 | 25 | 1011.9 |
| 20260505211153 | 80 | 325 | 2.0 | 5.0 | 0.00 | 0.00 | 0.00 | 26 | 1011.8 |
| 20260505210650 | 81 | 295 | 3.0 | 6.0 | 0.00 | 0.00 | 0.00 | 25 | 1011.6 |
| 20260505210147 | 82 | 303 | 1.0 | 4.0 | 0.00 | 0.00 | 0.00 | 24 | 1011.9 |
| 20260505205644 | 83 | 309 | 4.0 | 4.0 | 0.00 | 0.00 | 0.00 | 22 | 1011.8 |
| 20260505205142 | 81 | 330 | 2.0 | 5.0 | 0.00 | 0.00 | 0.00 | 21 | 1012.0 |
| 20260505204638 | 81 | 296 | 3.0 | 4.0 | 0.00 | 0.00 | 0.00 | 20 | 1011.9 |
| 20260505204137 | 82 | 43 | 0.0 | 4.0 | 0.00 | 0.00 | 0.00 | 23 | 1011.7 |
| 20260505203633 | 84 | 353 | 2.0 | 5.0 | 0.00 | 0.00 | 0.00 | 21 | 1011.7 |
| 20260505203130 | 84 | 316 | 2.0 | 4.0 | 0.00 | 0.00 | 0.00 | 24 | 1012.0 |
| 20260505202626 | 82 | 311 | 7.0 | 7.0 | 0.00 | 0.00 | 0.00 | 23 | 1011.6 |
| 20260505202122 | 83 | 303 | 7.0 | 8.0 | 0.00 | 0.00 | 0.00 | 24 | 1011.8 |
| 20260505201619 | 84 | 294 | 4.0 | 4.0 | 0.00 | 0.00 | 0.00 | 26 | 1012.0 |
| 20260505201117 | 83 | 330 | 3.0 | 3.0 | 0.00 | 0.00 | 0.00 | 27 | 1011.8 |
| 20260505200614 | 82 | 235 | 0.0 | 4.0 | 0.00 | 0.00 | 0.00 | 26 | 1012.0 |
| 20260505200111 | 81 | 159 | 1.0 | 8.0 | 0.00 | 0.00 | 0.00 | 28 | 1012.1 |
| 20260505195607 | 82 | 226 | 2.0 | 11.0 | 0.00 | 0.00 | 0.00 | 30 | 1012.0 |
| 20260505195105 | 85 | 282 | 1.0 | 4.0 | 0.00 | 0.00 | 0.00 | 27 | 1012.0 |
| 20260505194602 | 85 | 257 | 3.0 | 3.0 | 0.00 | 0.00 | 0.00 | 27 | 1012.0 |
| 20260505194057 | 84 | 239 | 0.0 | 4.0 | 0.00 | 0.00 | 0.00 | 26 | 1012.4 |
| 20260505193555 | 84 | 305 | 3.0 | 4.0 | 0.00 | 0.00 | 0.00 | 25 | 1012.2 |
| 20260505193052 | 83 | 233 | 2.0 | 3.0 | 0.00 | 0.00 | 0.00 | 26 | 1012.3 |
| 20260505192550 | 83 | 317 | 4.0 | 10.0 | 0.00 | 0.00 | 0.00 | 22 | 1012.4 |
| 20260505192047 | 85 | 184 | 2.0 | 4.0 | 0.00 | 0.00 | 0.00 | 25 | 1012.1 |
| 20260505191546 | 85 | 342 | 3.0 | 4.0 | 0.00 | 0.00 | 0.00 | 23 | 1012.4 |
| 20260505191043 | 85 | 209 | 0.0 | 6.0 | 0.00 | 0.00 | 0.00 | 26 | 1012.3 |
| 20260505190537 | 85 | 157 | 2.0 | 3.0 | 0.00 | 0.00 | 0.00 | 25 | 1012.4 |
| 20260505190034 | 85 | 172 | 2.0 | 3.0 | 0.00 | 0.00 | 0.00 | 27 | 1012.4 |
| 20260505185531 | 85 | 101 | 4.0 | 4.0 | 0.00 | 0.00 | 0.00 | 24 | 1012.7 |